YAOGAN-33 04

导读

YAOGAN-33 04是中国于北京时间2023年9月26日8时发射的遥感卫星,隶属于中国遥感卫星系列。该系列卫星主要用于开展国土普查、环境监测、防灾减灾、科学实验以及地理信息测绘等任务,服务国民经济建设,为相关领域发展提供可靠的空间观测数据支持。

基本信息
目录编号:
57958
目录名称:
YAOGAN-33 04
国际标识:
2023-149A
轨道中心:
EARTH
卫星名称:
YAOGAN-33 04
卫星全名:
--
卫星状态:
在轨 (已飞行1022 天)
发射日期:
2023-09-26 UTC
国别 :
中国 (CN)
星等 :
--
轨道信息
数据来源 国际轨道数据 AOE轨道数据
星历时间 2026-07-13T22:28:27+0800
13小时前
查看轨道信息
2026-07-11T12:00:00+0800
3天前
查看轨道信息
半长轴 7075.334km 7075.337km
偏心率 0.0000769 0.0000803
轨道倾角 98.198° 98.197°
近地点辐角 68.033° 65.143°
升交点赤经 143.649° 141.244°
平近点角 292.095° 107.650°
近地点 696.652km 696.631km
远地点 697.742km 697.769km
周期 98.714分钟 98.714分钟
每日圈数 14.58755 14.587541
详细信息
使用方式:
暂无
2D轨道图
3D轨道图
轨道高度分析图
轨道倾角分析图
轨道综合分析图
查看轨道综合分析图